Location: Mount Kobau Star Party
(49.1167°N, 119.7333°W)
Time: 12:36:31
(UTC-07:00)

ARIANE 6 FM1 Upper Stage - Pass Details

Date: 15 April 2026
Orbit: 526 x 601 km, 62.0° (Epoch: 18 May)

Event Time Altitude Azimuth Distance (km) Brightness Sun altitude
Rises 22:33:44 0° 294° (WNW) 2,698 7.2 -22.7°
Reaches altitude 10° 22:36:58 10° 322° (NW) 1,794 6.4 -23.1°
Maximum altitude 22:39:02 14° 353° (N) 1,570 5.7 -23.3°
Drops below altitude 10° 22:41:06 10° 24° (NNE) 1,782 5.5 -23.5°
Sets 22:44:17 0° 52° (NE) 2,666 6.1 -23.8°
